Location: Pian di Sc�
(43.6333°N, 11.5500°E)
Time: 14:07:12
(UTC+00:00)

IRS-1D - Pass Details

Date: 07 August 2020
Orbit: 741 x 816 km, 98.6° (Epoch: 24 September)

Event Time Altitude Azimuth Distance (km) Brightness Sun altitude
Rises 02:22:45 0° 4° (N) 3,214 7.5 -16.9°
Reaches altitude 10° 02:25:14 10° 355° (N) 2,294 6.5 -16.6°
Maximum altitude 02:29:41 33° 293° (WNW) 1,281 4.4 -16.0°
Enters shadow 02:31:55 23° 250° (WSW) 1,605 4.6 -15.7°
